Vossem  Vossem


Bezoek onze andere website:

Meteotemplate

Home Weather Station

Saratoga


Lokaal brand risico:
CBI


Regionaal brand risico: Meer informatie



Select another period ( hide this area )

Eenheden Periode Custom range Directly to
Metrisch Engels Beide
Dagelijkse Wekelijkse Maandelijkse Jaarlijkse
use both date-selectors for a custom range
previous Dag
With this date

WeatherUnderground graphs for this period ( click here )


Dagelijkse Samenvatting Maandag 22 april 2019
Tijd Temp. ( °C ) Dew pt. ( °C ) Wind ( km/h ) van Vlaag ( km/h ) Luchtdruk ( hPa ) Humid.( % ) Rainrate ( cm )
Hoog25,7 9,9 11,9 Oosten ( 137/367 ) 16,1 1013,1 93 -
Gemiddeld13,4 5,0 1,8 Kalm #130/199 -45,1 998,7 63 -
Laag-17,8 -17,8 -   -1607,4 0,0 0 -
Dagelijkse Tabular details for Maandag 22 april 2019
Tijd Temp. ( °C ) Dew pt. ( °C ) Wind ( km/h ) van Vlaag ( km/h ) Luchtdruk ( hPa ) Humid.( % ) Rainrate ( cm )
00:04 8,8 5,5   Kalm   1013,1 80 -
00:09 8,7 5,6   Kalm   1013,1 81 -
00:14 8,6 5,5   Kalm   1013,1 81 -
00:19 8,5 5,6   Kalm   1013,1 82 -
00:24 8,4 5,5   Kalm   1013,1 82 -
00:29 8,4 5,5   Kalm   1013,1 82 -
00:34 8,3 5,4   Kalm   1013,1 82 -
00:39 8,2 5,3   Kalm   1013,1 82 -
00:44 8,1 5,4   Kalm   1013,1 83 -
00:49 8,0 5,3   Kalm   1013,1 83 -
00:54 7,9 5,2   Kalm   1013,1 83 -
00:59 7,8 5,1   Kalm   1013,1 83 -
01:04 7,8 5,1   Kalm   1013,1 83 -
01:09 7,8 5,1   Kalm   1012,8 83 -
01:14 7,7 5,0   Kalm   1012,8 83 -
01:19 7,7 5,0   Kalm   1012,8 83 -
01:24 7,7 5,0   Kalm   1012,8 83 -
01:29 7,6 4,9   Kalm   1012,8 83 -
01:34 7,5 4,8   Kalm   1012,8 83 -
01:39 7,3 4,6   Kalm   1012,4 83 -
01:44 7,3 4,6   Kalm   1012,4 83 -
01:49 7,2 4,5   Kalm   1012,4 83 -
01:54 7,1 4,6   Kalm   1012,4 84 -
01:59 7,0 4,5   Kalm   1012,4 84 -
02:04 6,9 4,4   Kalm   1012,1 84 -
02:09 6,8 4,3   Kalm   1012,1 84 -
02:14 6,8 4,3   Kalm   1012,1 84 -
02:19 6,7 4,4   Kalm   1012,1 85 -
02:24 6,7 4,4   Kalm   1012,1 85 -
02:29 6,6 4,1   Kalm   1012,1 84 -
02:34 6,5 4,2   Kalm   1012,1 85 -
02:39 6,4 4,1   Kalm   1012,1 85 -
02:44 6,3 4,0   Kalm   1012,1 85 -
02:49 6,3 4,0   Kalm   1011,7 85 -
02:54 6,2 3,9   Kalm   1011,7 85 -
02:59 6,2 3,9   Kalm   1011,7 85 -
03:04 6,1 3,8   Kalm   1011,7 85 -
03:09 6,1 3,9   Kalm   1011,7 86 -
03:14 6,0 3,8   Kalm   1011,7 86 -
03:19 5,9 3,7   Kalm   1011,4 86 -
03:24 5,8 3,6   Kalm   1011,7 86 -
03:29 5,8 3,6   Kalm   1011,4 86 -
03:34 5,8 3,6   Kalm   1011,4 86 -
03:39 5,7 3,5   Kalm   1011,4 86 -
03:44 5,6 3,4   Kalm   1011,4 86 -
03:49 5,6 3,6   Kalm   1011,1 87 -
03:54 5,6 3,6   Kalm   1011,4 87 -
03:59 5,5 3,5   Kalm   1011,1 87 -
04:04 5,4 3,4   Kalm   1011,1 87 -
04:09 5,5 3,5   Kalm   1011,1 87 -
04:14 5,5 3,5   Kalm   1011,1 87 -
04:19 5,4 3,4   Kalm   1011,1 87 -
04:24 5,4 3,6   Kalm   1011,1 88 -
04:29 5,4 3,4   Kalm   1011,1 87 -
04:34 5,4 3,4   Kalm   1010,7 87 -
04:39 5,4 3,4   Kalm   1010,7 87 -
04:44 5,3 3,5   Kalm   1010,7 88 -
04:49 5,3 3,5   Kalm   1010,7 88 -
04:54 5,3 3,3   Kalm   1010,4 87 -
04:59 5,3 3,5   Kalm   1010,7 88 -
05:03 5,3 3,5   Kalm   1010,4 88 -
05:09 5,3 3,5   Kalm   1010,4 88 -
05:14 5,2 3,4   Kalm   1010,4 88 -
05:19 5,2 3,4   Kalm   1010,4 88 -
05:24 5,2 3,4   Kalm   1010,0 88 -
05:29 5,2 3,4   Kalm   1010,0 88 -
05:34 5,1 3,3   Kalm   1010,0 88 -
05:39 5,1 3,4   Kalm   1010,0 89 -
05:44 5,1 3,4   Kalm   1010,0 89 -
05:49 5,1 3,4   Kalm   1010,0 89 -
05:54 5,1 3,4   Kalm   1010,0 89 -
05:59 5,1 3,6   Kalm   1009,7 90 -
06:04 5,1 3,6   Kalm   1009,7 90 -
06:09 5,1 3,6   Kalm   1009,7 90 -
06:14 5,1 3,6   Kalm   1009,7 90 -
06:19 5,1 3,6   Kalm   1009,7 90 -
06:24 5,1 3,6   Kalm   1009,7 90 -
06:29 5,1 3,6   Kalm   1009,4 90 -
06:34 5,1 3,6   Kalm   1009,4 90 -
06:39 5,1 3,6   Kalm   1009,7 90 -
06:44 5,1 3,6   Kalm   1009,4 90 -
06:49 5,0 3,5   Kalm   1009,4 90 -
06:54 4,9 3,4   Kalm   1009,4 90 -
06:59 4,9 3,4   Kalm   1009,4 90 -
07:04 4,9 3,4   Kalm   1009,4 90 -
07:09 4,9 3,4   Kalm   1009,4 90 -
07:14 5,0 3,5   Kalm   1009,4 90 -
07:19 5,1 3,8   Kalm   1009,7 91 -
07:24 5,3 4,0   Kalm   1009,7 91 -
07:29 5,3 4,0   Kalm   1009,4 91 -
07:34 5,5 4,1   Kalm   1009,7 91 -
07:39 5,9 4,7   Kalm   1009,4 92 -
07:44 6,3 5,3   Kalm   1009,4 93 -
07:49 6,7 5,5   Kalm   1009,4 92 -
07:54 7,2 6,0   Kalm   1009,4 92 -
07:59 7,8 6,7   Kalm   1009,4 93 -
08:03 8,3 7,1   Kalm   1009,4 92 -
08:09 8,7 7,0   Kalm   1009,4 89 -
08:14 9,1 7,4   Kalm   1009,4 89 -
08:19 9,3 7,2   Kalm   1009,4 87 -
08:24 9,8 7,4   Kalm   1009,4 85 -
08:28 10,3 7,9   Kalm   1009,0 85 -
08:33 11,0 7,7   Kalm   1009,4 80 -
08:38 11,8 7,7   Kalm   1009,0 76 -
08:43 12,4 7,5   Kalm   1009,0 72 -
08:48 12,9 8,0   Kalm   1009,0 72 -
08:53 13,5 8,1   Kalm   1009,0 70 -
08:58 14,1 8,1   Kalm   1009,0 67 -
09:03 14,7 8,0   Kalm   1009,0 64 -
09:08 15,3 7,3   Kalm   1009,0 59 -
09:13 15,8 8,0   Kalm   1009,0 60 -
09:19 16,3 7,5   Kalm   1009,0 56 -
09:24 16,4 7,3   Kalm   1009,0 55 -
09:29 16,6 8,3   Kalm   1008,7 58 -
09:34 17,0 9,2   Kalm   1008,7 60 -
09:39 -17,8 -17,8   Kalm -1607,4 0,0 0 -
09:44 17,9 9,8   Kalm   1008,7 59 -
09:49 -17,8 -17,8   Kalm -1607,4 0,0 0 -
09:54 18,6 9,9   Kalm   1008,4 57 -
09:59 18,8 9,3   Kalm   1008,4 54 -
10:04 19,1 9,0   Kalm   1008,4 52 -
10:09 19,3 8,3   Kalm   1008,4 49 -
10:14 19,6 7,3   Kalm 1,6 1008,4 45 -
10:19 19,7 8,4   Kalm   1008,4 48 -
10:24 20,0 7,4 5,0 ONO 9,7 1008,4 44 -
10:29 19,9 7,3 6,9 Oosten 9,7 1008,4 44 -
10:34 19,9 7,6   Kalm 4,8 1008,4 45 -
10:39 20,2 6,9 5,0 Oosten 9,7 1008,4 42 -
10:44 20,2 7,6 3,2 Oosten 6,4 1008,4 44 -
10:49 20,3 7,3 5,0 OZO 8,0 1008,0 43 -
10:54 20,6 7,2 5,0 Oosten 9,7 1008,4 42 -
10:59 20,7 8,0 5,0 Oosten 6,4 1008,0 44 -
11:04 20,9 8,8 8,7 OZO 9,7 1008,0 46 -
11:09 20,9 7,9 1,8 ZO 8,0 1008,0 43 -
11:14 21,1 9,3 5,0 ONO 6,4 1008,0 47 -
11:19 21,1 8,4 3,2 ONO 8,0 1007,7 44 -
11:24 21,2 8,1 3,2 Oosten 9,7 1008,0 43 -
11:29 21,3 8,2 1,8 Oosten 8,0 1007,7 43 -
11:34 21,7 9,2   Kalm 6,4 1007,7 45 -
11:39 21,9 8,4 3,2 ONO 11,3 1007,3 42 -
11:44 22,1 8,2 6,9 Oosten 8,0 1007,3 41 -
11:49 22,1 8,6 10,1 ONO 9,7 1007,3 42 -
11:54 22,1 9,3 1,8 Oosten 8,0 1007,3 44 -
11:59 22,3 8,8 3,2 ZO 9,7 1007,3 42 -
12:04 22,4 8,1 3,2 Oosten 8,0 1007,3 40 -
12:09 22,6 8,3 3,2 OZO 6,4 1007,0 40 -
12:14 22,8 7,7 8,7 OZO 8,0 1007,0 38 -
12:19 22,9 7,4 3,2 Oosten 14,5 1007,0 37 -
12:24 23,1 6,8 1,8 Oosten 11,3 1007,0 35 -
12:29 23,2 7,3 1,8 Oosten 4,8 1006,7 36 -
12:34 23,6 7,2   Kalm 8,0 1006,7 35 -
12:39 23,8 8,6 1,8 OZO 4,8 1006,7 38 -
12:44 24,1 7,7   Kalm 8,0 1006,7 35 -
12:49 24,2 5,5 3,2 Oosten 9,7 1006,3 30 -
12:54 24,2 5,0 8,7 Oosten 11,3 1006,3 29 -
12:59 24,2 5,0   Kalm 8,0 1006,3 29 -
13:04 24,1 4,5 3,2 ZO 8,0 1006,3 28 -
13:09 23,9 4,3 8,7 Oosten 16,1 1006,0 28 -
13:14 23,9 4,8 3,2 NO 14,5 1006,0 29 -
13:19 24,1 3,9 8,7 OZO 16,1 1006,0 27 -
13:24 24,2 4,0 3,2 Oosten 8,0 1005,6 27 -
13:29 24,3 3,6 6,9 OZO 14,5 1005,6 26 -
13:34 24,4 5,2 6,9 ONO 9,7 1005,6 29 -
13:39 24,4 3,1 3,2 OZO 11,3 1005,6 25 -
13:44 24,5 4,3 5,0 ZO 9,7 1005,6 27 -
13:49 24,6 4,4 8,7 Oosten 16,1 1005,6 27 -
13:54 24,4 4,2 6,9 OZO -1607,4 1005,6 27 -
13:59 24,3 5,1 5,0 NO 4,8 1005,3 29 -
14:04 24,6 5,4 6,9 OZO 9,7 1005,3 29 -
14:09 24,6 5,4 10,1 ONO 9,7 1005,3 29 -
14:14 24,6 4,9 3,2 Oosten 3,2 1005,3 28 -
14:19 24,6 5,4 6,9 OZO 6,4 1005,3 29 -
14:24 24,8 4,5   Kalm   1005,3 27 -
14:29 24,9 5,1 3,2 NO 9,7 1005,3 28 -
14:34 24,9 5,1 6,9 ZW -1607,4 1005,0 28 -
14:39 24,9 5,1 6,9 ZW -1607,4 1005,0 28 -
14:44 -17,8 -17,8 5,0 Oosten -1607,4 1005,0 0 -
14:49 25,1 4,2 5,0 Oosten 11,3 1004,6 26 -
14:54 24,9 4,6 10,1 OZO 11,3 1004,6 27 -
14:59 24,9 5,1 3,2 Oosten 6,4 1004,6 28 -
15:04 24,9 2,3 11,9 ONO 16,1 1004,6 23 -
15:09 24,9 5,1 5,0 OZO 14,5 1004,6 28 -
15:14 24,9 4,1 8,7 OZO 16,1 1004,3 26 -
15:19 25,0 4,2 5,0 ZO 16,1 1004,3 26 -
15:24 24,9 2,9 1,8 Oosten 8,0 1004,3 24 -
15:29 24,9 5,1 3,2 Oosten 9,7 1004,3 28 -
15:34 25,1 4,8 6,9 ONO 9,7 1004,3 27 -
15:39 25,3 5,5 5,0 Oosten 9,7 1003,9 28 -
15:44 25,3 5,0 8,7 Oosten 11,3 1003,9 27 -
15:49 25,3 6,0 6,9 ZO 6,4 1003,9 29 -
15:54 25,4 5,0 6,9 ONO 9,7 1003,9 27 -
15:59 25,4 4,5 6,9 Oosten 9,7 1003,9 26 -
16:04 25,4 4,5 1,8 ZO 8,0 1003,6 26 -
16:09 25,7 5,3 3,2 Zuiden 8,0 1003,6 27 -
16:14 25,7 6,8 10,1 ONO 11,3 1003,6 30 -
16:19 25,6 5,2 3,2 ZZO 11,3 1003,6 27 -
16:24 25,6 6,2 5,0 Oosten 6,4 1003,3 29 -
16:29 25,6 5,2 1,8 OZO 11,3 1003,3 27 -
16:34 25,4 4,5 8,7 Oosten 9,7 1003,3 26 -
Dagelijkse Samenvatting Maandag 22 april 2019
Tijd Temp. ( °C ) Dew pt. ( °C ) Wind ( km/h ) van Vlaag ( km/h ) Luchtdruk ( hPa ) Humid.( % ) Rainrate ( cm )
Hoog25,7 9,9 11,9 Oosten ( 137/367 ) 16,1 1013,1 93 -
Gemiddeld13,4 5,0 1,8 Kalm #130/199 -45,1 998,7 63 -
Laag-17,8 -17,8 -   -1607,4 0,0 0 -
Dagelijkse Tabular details for Maandag 22 april 2019
Tijd Temp. ( °C ) Dew pt. ( °C ) Wind ( km/h ) van Vlaag ( km/h ) Luchtdruk ( hPa ) Humid.( % ) Rainrate ( cm )
00:04 8,8 5,5   Kalm   1013,1 80 -
00:09 8,7 5,6   Kalm   1013,1 81 -
00:14 8,6 5,5   Kalm   1013,1 81 -
00:19 8,5 5,6   Kalm   1013,1 82 -
00:24 8,4 5,5   Kalm   1013,1 82 -
00:29 8,4 5,5   Kalm   1013,1 82 -
00:34 8,3 5,4   Kalm   1013,1 82 -
00:39 8,2 5,3   Kalm   1013,1 82 -
00:44 8,1 5,4   Kalm   1013,1 83 -
00:49 8,0 5,3   Kalm   1013,1 83 -
00:54 7,9 5,2   Kalm   1013,1 83 -
00:59 7,8 5,1   Kalm   1013,1 83 -
01:04 7,8 5,1   Kalm   1013,1 83 -
01:09 7,8 5,1   Kalm   1012,8 83 -
01:14 7,7 5,0   Kalm   1012,8 83 -
01:19 7,7 5,0   Kalm   1012,8 83 -
01:24 7,7 5,0   Kalm   1012,8 83 -
01:29 7,6 4,9   Kalm   1012,8 83 -
01:34 7,5 4,8   Kalm   1012,8 83 -
01:39 7,3 4,6   Kalm   1012,4 83 -
01:44 7,3 4,6   Kalm   1012,4 83 -
01:49 7,2 4,5   Kalm   1012,4 83 -
01:54 7,1 4,6   Kalm   1012,4 84 -
01:59 7,0 4,5   Kalm   1012,4 84 -
02:04 6,9 4,4   Kalm   1012,1 84 -
02:09 6,8 4,3   Kalm   1012,1 84 -
02:14 6,8 4,3   Kalm   1012,1 84 -
02:19 6,7 4,4   Kalm   1012,1 85 -
02:24 6,7 4,4   Kalm   1012,1 85 -
02:29 6,6 4,1   Kalm   1012,1 84 -
02:34 6,5 4,2   Kalm   1012,1 85 -
02:39 6,4 4,1   Kalm   1012,1 85 -
02:44 6,3 4,0   Kalm   1012,1 85 -
02:49 6,3 4,0   Kalm   1011,7 85 -
02:54 6,2 3,9   Kalm   1011,7 85 -
02:59 6,2 3,9   Kalm   1011,7 85 -
03:04 6,1 3,8   Kalm   1011,7 85 -
03:09 6,1 3,9   Kalm   1011,7 86 -
03:14 6,0 3,8   Kalm   1011,7 86 -
03:19 5,9 3,7   Kalm   1011,4 86 -
03:24 5,8 3,6   Kalm   1011,7 86 -
03:29 5,8 3,6   Kalm   1011,4 86 -
03:34 5,8 3,6   Kalm   1011,4 86 -
03:39 5,7 3,5   Kalm   1011,4 86 -
03:44 5,6 3,4   Kalm   1011,4 86 -
03:49 5,6 3,6   Kalm   1011,1 87 -
03:54 5,6 3,6   Kalm   1011,4 87 -
03:59 5,5 3,5   Kalm   1011,1 87 -
04:04 5,4 3,4   Kalm   1011,1 87 -
04:09 5,5 3,5   Kalm   1011,1 87 -
04:14 5,5 3,5   Kalm   1011,1 87 -
04:19 5,4 3,4   Kalm   1011,1 87 -
04:24 5,4 3,6   Kalm   1011,1 88 -
04:29 5,4 3,4   Kalm   1011,1 87 -
04:34 5,4 3,4   Kalm   1010,7 87 -
04:39 5,4 3,4   Kalm   1010,7 87 -
04:44 5,3 3,5   Kalm   1010,7 88 -
04:49 5,3 3,5   Kalm   1010,7 88 -
04:54 5,3 3,3   Kalm   1010,4 87 -
04:59 5,3 3,5   Kalm   1010,7 88 -
05:03 5,3 3,5   Kalm   1010,4 88 -
05:09 5,3 3,5   Kalm   1010,4 88 -
05:14 5,2 3,4   Kalm   1010,4 88 -
05:19 5,2 3,4   Kalm   1010,4 88 -
05:24 5,2 3,4   Kalm   1010,0 88 -
05:29 5,2 3,4   Kalm   1010,0 88 -
05:34 5,1 3,3   Kalm   1010,0 88 -
05:39 5,1 3,4   Kalm   1010,0 89 -
05:44 5,1 3,4   Kalm   1010,0 89 -
05:49 5,1 3,4   Kalm   1010,0 89 -
05:54 5,1 3,4   Kalm   1010,0 89 -
05:59 5,1 3,6   Kalm   1009,7 90 -
06:04 5,1 3,6   Kalm   1009,7 90 -
06:09 5,1 3,6   Kalm   1009,7 90 -
06:14 5,1 3,6   Kalm   1009,7 90 -
06:19 5,1 3,6   Kalm   1009,7 90 -
06:24 5,1 3,6   Kalm   1009,7 90 -
06:29 5,1 3,6   Kalm   1009,4 90 -
06:34 5,1 3,6   Kalm   1009,4 90 -
06:39 5,1 3,6   Kalm   1009,7 90 -
06:44 5,1 3,6   Kalm   1009,4 90 -
06:49 5,0 3,5   Kalm   1009,4 90 -
06:54 4,9 3,4   Kalm   1009,4 90 -
06:59 4,9 3,4   Kalm   1009,4 90 -
07:04 4,9 3,4   Kalm   1009,4 90 -
07:09 4,9 3,4   Kalm   1009,4 90 -
07:14 5,0 3,5   Kalm   1009,4 90 -
07:19 5,1 3,8   Kalm   1009,7 91 -
07:24 5,3 4,0   Kalm   1009,7 91 -
07:29 5,3 4,0   Kalm   1009,4 91 -
07:34 5,5 4,1   Kalm   1009,7 91 -
07:39 5,9 4,7   Kalm   1009,4 92 -
07:44 6,3 5,3   Kalm   1009,4 93 -
07:49 6,7 5,5   Kalm   1009,4 92 -
07:54 7,2 6,0   Kalm   1009,4 92 -
07:59 7,8 6,7   Kalm   1009,4 93 -
08:03 8,3 7,1   Kalm   1009,4 92 -
08:09 8,7 7,0   Kalm   1009,4 89 -
08:14 9,1 7,4   Kalm   1009,4 89 -
08:19 9,3 7,2   Kalm   1009,4 87 -
08:24 9,8 7,4   Kalm   1009,4 85 -
08:28 10,3 7,9   Kalm   1009,0 85 -
08:33 11,0 7,7   Kalm   1009,4 80 -
08:38 11,8 7,7   Kalm   1009,0 76 -
08:43 12,4 7,5   Kalm   1009,0 72 -
08:48 12,9 8,0   Kalm   1009,0 72 -
08:53 13,5 8,1   Kalm   1009,0 70 -
08:58 14,1 8,1   Kalm   1009,0 67 -
09:03 14,7 8,0   Kalm   1009,0 64 -
09:08 15,3 7,3   Kalm   1009,0 59 -
09:13 15,8 8,0   Kalm   1009,0 60 -
09:19 16,3 7,5   Kalm   1009,0 56 -
09:24 16,4 7,3   Kalm   1009,0 55 -
09:29 16,6 8,3   Kalm   1008,7 58 -
09:34 17,0 9,2   Kalm   1008,7 60 -
09:39 -17,8 -17,8   Kalm -1607,4 0,0 0 -
09:44 17,9 9,8   Kalm   1008,7 59 -
09:49 -17,8 -17,8   Kalm -1607,4 0,0 0 -
09:54 18,6 9,9   Kalm   1008,4 57 -
09:59 18,8 9,3   Kalm   1008,4 54 -
10:04 19,1 9,0   Kalm   1008,4 52 -
10:09 19,3 8,3   Kalm   1008,4 49 -
10:14 19,6 7,3   Kalm 1,6 1008,4 45 -
10:19 19,7 8,4   Kalm   1008,4 48 -
10:24 20,0 7,4 5,0 ONO 9,7 1008,4 44 -
10:29 19,9 7,3 6,9 Oosten 9,7 1008,4 44 -
10:34 19,9 7,6   Kalm 4,8 1008,4 45 -
10:39 20,2 6,9 5,0 Oosten 9,7 1008,4 42 -
10:44 20,2 7,6 3,2 Oosten 6,4 1008,4 44 -
10:49 20,3 7,3 5,0 OZO 8,0 1008,0 43 -
10:54 20,6 7,2 5,0 Oosten 9,7 1008,4 42 -
10:59 20,7 8,0 5,0 Oosten 6,4 1008,0 44 -
11:04 20,9 8,8 8,7 OZO 9,7 1008,0 46 -
11:09 20,9 7,9 1,8 ZO 8,0 1008,0 43 -
11:14 21,1 9,3 5,0 ONO 6,4 1008,0 47 -
11:19 21,1 8,4 3,2 ONO 8,0 1007,7 44 -
11:24 21,2 8,1 3,2 Oosten 9,7 1008,0 43 -
11:29 21,3 8,2 1,8 Oosten 8,0 1007,7 43 -
11:34 21,7 9,2   Kalm 6,4 1007,7 45 -
11:39 21,9 8,4 3,2 ONO 11,3 1007,3 42 -
11:44 22,1 8,2 6,9 Oosten 8,0 1007,3 41 -
11:49 22,1 8,6 10,1 ONO 9,7 1007,3 42 -
11:54 22,1 9,3 1,8 Oosten 8,0 1007,3 44 -
11:59 22,3 8,8 3,2 ZO 9,7 1007,3 42 -
12:04 22,4 8,1 3,2 Oosten 8,0 1007,3 40 -
12:09 22,6 8,3 3,2 OZO 6,4 1007,0 40 -
12:14 22,8 7,7 8,7 OZO 8,0 1007,0 38 -
12:19 22,9 7,4 3,2 Oosten 14,5 1007,0 37 -
12:24 23,1 6,8 1,8 Oosten 11,3 1007,0 35 -
12:29 23,2 7,3 1,8 Oosten 4,8 1006,7 36 -
12:34 23,6 7,2   Kalm 8,0 1006,7 35 -
12:39 23,8 8,6 1,8 OZO 4,8 1006,7 38 -
12:44 24,1 7,7   Kalm 8,0 1006,7 35 -
12:49 24,2 5,5 3,2 Oosten 9,7 1006,3 30 -
12:54 24,2 5,0 8,7 Oosten 11,3 1006,3 29 -
12:59 24,2 5,0   Kalm 8,0 1006,3 29 -
13:04 24,1 4,5 3,2 ZO 8,0 1006,3 28 -
13:09 23,9 4,3 8,7 Oosten 16,1 1006,0 28 -
13:14 23,9 4,8 3,2 NO 14,5 1006,0 29 -
13:19 24,1 3,9 8,7 OZO 16,1 1006,0 27 -
13:24 24,2 4,0 3,2 Oosten 8,0 1005,6 27 -
13:29 24,3 3,6 6,9 OZO 14,5 1005,6 26 -
13:34 24,4 5,2 6,9 ONO 9,7 1005,6 29 -
13:39 24,4 3,1 3,2 OZO 11,3 1005,6 25 -
13:44 24,5 4,3 5,0 ZO 9,7 1005,6 27 -
13:49 24,6 4,4 8,7 Oosten 16,1 1005,6 27 -
13:54 24,4 4,2 6,9 OZO -1607,4 1005,6 27 -
13:59 24,3 5,1 5,0 NO 4,8 1005,3 29 -
14:04 24,6 5,4 6,9 OZO 9,7 1005,3 29 -
14:09 24,6 5,4 10,1 ONO 9,7 1005,3 29 -
14:14 24,6 4,9 3,2 Oosten 3,2 1005,3 28 -
14:19 24,6 5,4 6,9 OZO 6,4 1005,3 29 -
14:24 24,8 4,5   Kalm   1005,3 27 -
14:29 24,9 5,1 3,2 NO 9,7 1005,3 28 -
14:34 24,9 5,1 6,9 ZW -1607,4 1005,0 28 -
14:39 24,9 5,1 6,9 ZW -1607,4 1005,0 28 -
14:44 -17,8 -17,8 5,0 Oosten -1607,4 1005,0 0 -
14:49 25,1 4,2 5,0 Oosten 11,3 1004,6 26 -
14:54 24,9 4,6 10,1 OZO 11,3 1004,6 27 -
14:59 24,9 5,1 3,2 Oosten 6,4 1004,6 28 -
15:04 24,9 2,3 11,9 ONO 16,1 1004,6 23 -
15:09 24,9 5,1 5,0 OZO 14,5 1004,6 28 -
15:14 24,9 4,1 8,7 OZO 16,1 1004,3 26 -
15:19 25,0 4,2 5,0 ZO 16,1 1004,3 26 -
15:24 24,9 2,9 1,8 Oosten 8,0 1004,3 24 -
15:29 24,9 5,1 3,2 Oosten 9,7 1004,3 28 -
15:34 25,1 4,8 6,9 ONO 9,7 1004,3 27 -
15:39 25,3 5,5 5,0 Oosten 9,7 1003,9 28 -
15:44 25,3 5,0 8,7 Oosten 11,3 1003,9 27 -
15:49 25,3 6,0 6,9 ZO 6,4 1003,9 29 -
15:54 25,4 5,0 6,9 ONO 9,7 1003,9 27 -
15:59 25,4 4,5 6,9 Oosten 9,7 1003,9 26 -
16:04 25,4 4,5 1,8 ZO 8,0 1003,6 26 -
16:09 25,7 5,3 3,2 Zuiden 8,0 1003,6 27 -
16:14 25,7 6,8 10,1 ONO 11,3 1003,6 30 -
16:19 25,6 5,2 3,2 ZZO 11,3 1003,6 27 -
16:24 25,6 6,2 5,0 Oosten 6,4 1003,3 29 -
16:29 25,6 5,2 1,8 OZO 11,3 1003,3 27 -
16:34 25,4 4,5 8,7 Oosten 9,7 1003,3 26 -

Download your copy of this data-set  here

Our weather-data as stored at Weather Underground. Script ontwikkeld door Jim McMurry. Aangepast voor de template door Leuven-Template.eu

U vindt ons ook hier:

Het Weer Aktueel

UK Metoffice

European Weather Network

WeatherCloud

Weather Underground

Benelux Weer Netwerk

AWEKAS

Citizen Weather Observer Program (CWOP)

Apparatuur in gebruik:

Weerstation
Davis VP2

Weerprogramma
Meteobridge

Weercomputer
TP-Link MR3020

Davis VP2

Meteobridge

TP-Link MR3020